This is the latest recevied weather packets stored in our database for station/object IT9CNT. If no packets are shown the sender has not sent any weather packets the latest 1 day(s).
| Time | Temp. | Humidity | Pressure | Rain* | Wind** | Luminosity | Snow |
|---|---|---|---|---|---|---|---|
| 1778015103 | 16.67° C | 75% | 1012.6 hPa | 0 mm | 3.13 m/s, 100° | - | - |
| 1778015043 | 16.67° C | 75% | 1012.7 hPa | 0 mm | 3.13 m/s, 103° | - | - |
| 1778014983 | 16.67° C | 75% | 1012.9 hPa | 0 mm | 3.13 m/s, 100° | - | - |
| 1778014923 | 16.67° C | 75% | 1012.9 hPa | 0 mm | 3.13 m/s, 101° | - | - |
| 1778014863 | 16.67° C | 75% | 1012.9 hPa | 0 mm | 3.13 m/s, 105° | - | - |
| 1778014804 | 16.67° C | 74% | 1012.9 hPa | 0 mm | 3.13 m/s, 105° | - | - |
| 1778014743 | 16.67° C | 74% | 1012.8 hPa | 0 mm | 3.13 m/s, 105° | - | - |
| 1778014683 | 16.67° C | 74% | 1012.9 hPa | 0 mm | 3.13 m/s, 104° | - | - |
| 1778014623 | 16.67° C | 74% | 1012.9 hPa | 0 mm | 3.13 m/s, 103° | - | - |
| 1778014563 | 16.67° C | 74% | 1012.9 hPa | 0 mm | 3.13 m/s, 102° | - | - |
| 1778014503 | 16.67° C | 74% | 1012.9 hPa | 0 mm | 3.13 m/s, 100° | - | - |
| 1778014443 | 16.67° C | 74% | 1012.8 hPa | 0 mm | 2.68 m/s, 97° | - | - |
| 1778014383 | 16.67° C | 73% | 1012.8 hPa | 0 mm | 2.68 m/s, 99° | - | - |
| 1778014323 | 16.67° C | 73% | 1012.8 hPa | 0 mm | 2.68 m/s, 97° | - | - |
| 1778014263 | 16.67° C | 73% | 1012.7 hPa | 0 mm | 2.68 m/s, 94° | - | - |
| 1778014203 | 16.67° C | 73% | 1013 hPa | 0 mm | 2.68 m/s, 94° | - | - |
| 1778014143 | 16.67° C | 72% | 1012.9 hPa | 0 mm | 2.68 m/s, 91° | - | - |
| 1778014083 | 16.67° C | 72% | 1012.9 hPa | 0 mm | 2.68 m/s, 90° | - | - |
| 1778014023 | 16.67° C | 72% | 1013 hPa | 0 mm | 2.68 m/s, 89° | - | - |
| 1778013963 | 16.67° C | 72% | 1013.1 hPa | 0 mm | 2.68 m/s, 90° | - | - |
| 1778013903 | 16.67° C | 71% | 1013 hPa | 0 mm | 2.68 m/s, 90° | - | - |
| 1778013843 | 16.67° C | 71% | 1012.9 hPa | 0 mm | 2.68 m/s, 90° | - | - |
| 1778013783 | 16.67° C | 71% | 1013 hPa | 0 mm | 2.68 m/s, 92° | - | - |
| 1778013723 | 16.67° C | 71% | 1012.7 hPa | 0 mm | 2.68 m/s, 92° | - | - |
| 1778013663 | 16.67° C | 71% | 1013 hPa | 0 mm | 2.68 m/s, 95° | - | - |
* Rain latest hour (hover to see other rain measurements)
** Current wind speed in m/s (hover to see current wind gust speed)